Flag for French Polynesia Weather past 2 weeks in Papeete, Tahiti, French Polynesia

Now
77 °F

Warm.


Feels Like: 78 °F
Forecast: 78 / 87 °F
Wind: 2 mph from North

Location: Tahiti-Faaa


UV Index: 7 (High)

Visibility: N/A


Pressure: 29.83 "Hg

Humidity: 83%

Dew point: 72 °F

Location of PapeeteLocation

Historic Weather in Papeete

°F

Papeete temperature yesterday

Maximum temperature yesterday: 88 °F (at 10:30 AM)
Minimum temperature yesterday: 77 °F (at 12:00 AM)
Average temperature yesterday: 82 °F

Past Weeks' High & Low Weather Summary

 TemperatureHumidityPressure
High88 °F (Apr 10, 12:30 PM)94% (Apr 11, 11:00 PM)29.98 "Hg (Apr 11, 11:00 PM)
Low73 °F (Apr 10, 5:30 AM)55% (Apr 10, 3:00 PM)29.80 "Hg (Apr 9, 3:00 AM)
Average81 °F73%29.88 "Hg
* Reported Apr 9 3:00 AM — Apr 24 3:30 AM, Papeete, Weather by CustomWeather, © 2014

Note: Actual official high and low records may vary slightly from our data, if they occured in-between our weather recording intervals... More about our weather records

Advertising

Historic Weather Conditions — Data for Previous 24 hours

 ConditionsComfort  
Time TempWeatherWind HumidityBarometerVisibility
3:30 AM
Apr 24
79 °FWarm.2 mph79%29.83 "HgN/A
3:00 AM79 °FPassing clouds.2 mph79%29.83 "HgN/A
2:30 AM79 °FPassing clouds.6 mph74%29.83 "HgN/A
2:00 AM79 °FPassing clouds.2 mph74%29.83 "HgN/A
1:30 AM79 °FPassing clouds.2 mph74%29.86 "HgN/A
1:00 AM77 °FPassing clouds.3 mph79%29.86 "HgN/A
12:30 AM77 °FPassing clouds.2 mph79%29.86 "HgN/A
12:00 AM79 °FPassing clouds.2 mph79%29.89 "HgN/A
11:30 PM
Apr 23
79 °FPassing clouds.2 mph79%29.89 "HgN/A
11:00 PM79 °FPassing clouds.2 mph79%29.89 "HgN/A
10:30 PM79 °FPassing clouds.2 mph84%29.89 "HgN/A
10:00 PM81 °FPassing clouds.3 mph79%29.89 "HgN/A
9:30 PM81 °FPassing clouds.7 mph79%29.92 "HgN/A
9:00 PM81 °FPassing clouds.2 mph79%29.92 "HgN/A
8:30 PM82 °FPassing clouds.6 mph79%29.92 "HgN/A
8:00 PM82 °FPassing clouds.5 mph74%29.92 "HgN/A
7:30 PM82 °FPartly cloudy.1 mph74%29.92 "HgN/A
7:00 PM82 °FPartly cloudy.2 mph74%29.92 "HgN/A
6:30 PM82 °FPartly cloudy.7 mph74%29.89 "HgN/A
6:00 PM84 °FPartly cloudy.6 mph70%29.89 "HgN/A
5:30 PM84 °FBroken clouds.5 mph66%29.89 "HgN/A
5:00 PM84 °FBroken clouds.12 mph70%29.86 "HgN/A
4:30 PM86 °FScattered clouds.12 mph62%29.86 "HgN/A
4:00 PM86 °FScattered clouds.14 mph70%29.86 "HgN/A
3:30 PM88 °FScattered clouds.16 mph66%29.86 "HgN/A
3:00 PM88 °FScattered clouds.15 mph66%29.86 "HgN/A
2:30 PM88 °FScattered clouds.15 mph66%29.86 "HgN/A
2:00 PM88 °FScattered clouds.15 mph62%29.86 "HgN/A
1:30 PM88 °FScattered clouds.17 mph66%29.86 "HgN/A
1:00 PM88 °FPassing clouds.16 mph66%29.86 "HgN/A
12:30 PM88 °FScattered clouds.15 mph62%29.89 "HgN/A
12:00 PM88 °FScattered clouds.6 mph66%29.89 "HgN/A
11:30 AM88 °FScattered clouds.12 mph62%29.89 "HgN/A
11:00 AM88 °FPassing clouds.6 mph62%29.92 "HgN/A
10:30 AM88 °FPassing clouds.5 mph66%29.95 "HgN/A
10:00 AM86 °FPassing clouds.6 mph70%29.95 "HgN/A
9:30 AM86 °FPassing clouds.6 mph70%29.95 "HgN/A
9:00 AM84 °FPassing clouds.6 mph70%29.95 "HgN/A
8:30 AM84 °FPassing clouds.5 mph70%29.95 "HgN/A
8:00 AM82 °FPassing clouds.5 mph70%29.92 "HgN/A
7:30 AM81 °FPassing clouds.2 mph74%29.92 "HgN/A
7:00 AM77 °FPassing clouds.3 mph83%29.92 "HgN/A
6:30 AM77 °FPassing clouds.2 mph79%29.92 "HgN/A
6:00 AM77 °FPassing clouds.5 mph79%29.89 "HgN/A
5:30 AM77 °FWarm.5 mph83%29.89 "HgN/A
5:00 AM79 °FWarm.5 mph79%29.89 "HgN/A
4:30 AM77 °FWarm.6 mph83%29.89 "HgN/A
4:00 AM77 °FWarm.No wind83%29.86 "HgN/A
Weather by CustomWeather, © 2014

See weather overview